EW0871 Weather Reports


time (UTC)temp
F
wind
direction
speed
knots
gust
knots
rain 1hr
in
rain 24hr
in
rain mn
in
humidity
%
barometer
mb
20260508230506 62 164 3.5 7.0 0.00 0.00 0.00 62 1016.6
20260508230005 63 172 1.7 7.8 0.00 0.00 0.00 62 1016.6
20260508225506 63 182 2.6 7.8 0.00 0.00 0.00 62 1016.7
20260508225005 63 171 2.6 5.2 0.00 0.00 0.00 63 1016.6
20260508224506 63 168 1.7 6.1 0.00 0.00 0.00 63 1016.6
20260508224006 63 178 2.6 6.1 0.00 0.00 0.00 62 1016.7
20260508223505 63 186 1.7 7.0 0.00 0.00 0.00 62 1016.6
20260508223005 63 183 1.7 7.0 0.00 0.00 0.00 61 1016.7
20260508222506 63 184 3.5 7.0 0.00 0.00 0.00 61 1016.8
20260508222005 64 189 2.6 7.0 0.00 0.00 0.00 61 1016.8
20260508221505 64 191 2.6 6.1 0.00 0.00 0.00 61 1016.6
20260508221006 64 191 2.6 6.1 0.00 0.00 0.00 61 1016.6
20260508220505 64 187 3.5 6.1 0.00 0.00 0.00 60 1016.7
20260508220005 64 188 2.6 7.0 0.00 0.00 0.00 60 1016.6
20260508215506 64 186 3.5 7.0 0.00 0.00 0.00 59 1016.6
20260508214506 64 181 3.5 7.8 0.00 0.00 0.00 59 1016.6
20260508214006 65 174 4.3 7.8 0.00 0.00 0.00 58 1016.7
20260508213505 65 182 3.5 7.0 0.00 0.00 0.00 57 1016.8
20260508213006 66 182 2.6 7.0 0.00 0.00 0.00 57 1016.7
20260508212006 65 194 2.6 7.0 0.00 0.00 0.00 57 1016.5
20260508211506 65 181 2.6 7.0 0.00 0.00 0.00 57 1016.5
20260508211006 65 178 2.6 6.1 0.00 0.00 0.00 57 1016.5
20260508205505 66 181 3.5 6.1 0.00 0.00 0.00 55 1016.4
20260508205006 66 191 1.7 6.1 0.00 0.00 0.00 55 1016.4
20260508204505 67 201 0.0 2.6 0.00 0.00 0.00 54 1016.6
20260508204006 67 0 0.0 2.6 0.00 0.00 0.00 55 1016.5
20260508203506 67 219 1.7 8.7 0.00 0.00 0.00 53 1016.5
20260508203005 67 214 1.7 8.7 0.00 0.00 0.00 52 1016.7
20260508202506 68 215 2.6 7.8 0.00 0.00 0.00 50 1016.8
20260508202006 68 209 1.7 7.0 0.00 0.00 0.00 53 1016.8
20260508201506 68 202 0.9 7.0 0.00 0.00 0.00 55 1016.7
20260508201006 68 209 3.5 7.0 0.00 0.00 0.00 52 1016.7
20260508200506 67 216 1.7 6.1 0.00 0.00 0.00 53 1016.7
20260508200006 67 222 1.7 8.7 0.00 0.00 0.00 54 1016.8
20260508195505 67 219 3.5 8.7 0.00 0.00 0.00 53 1017.1
20260508195006 67 210 1.7 5.2 0.00 0.00 0.00 54 1017.1
20260508194505 67 0 0.0 4.3 0.00 0.00 0.00 56 1017.2
20260508194006 67 198 0.0 4.3 0.00 0.00 0.00 55 1017.4
20260508193506 67 226 2.6 4.3 0.00 0.00 0.00 52 1017.4
20260508193006 67 219 0.0 4.3 0.00 0.00 0.00 53 1017.6
20260508192506 68 194 0.0 4.3 0.00 0.00 0.00 53 1017.7
20260508192006 68 0 0.0 4.3 0.00 0.00 0.00 53 1017.7
20260508191506 69 193 1.7 9.6 0.00 0.00 0.00 54 1017.8
20260508191005 68 199 0.0 9.6 0.00 0.00 0.00 55 1017.7
20260508190505 67 196 1.7 8.7 0.00 0.00 0.00 53 1017.8
20260508185505 66 203 3.5 7.8 0.00 0.00 0.00 53 1018.1
20260508185006 66 214 0.0 5.2 0.00 0.00 0.00 54 1018.3
20260508184505 66 208 0.9 7.8 0.00 0.00 0.00 54 1018.3
20260508184006 66 209 3.5 7.8 0.00 0.00 0.00 52 1018.3
20260508183505 67 209 0.9 7.0 0.00 0.00 0.00 53 1018.3
20260508183006 66 190 0.9 7.0 0.00 0.00 0.00 55 1018.4
20260508182506 66 193 1.7 10.4 0.00 0.00 0.00 52 1018.3
20260508181505 68 0 0.0 6.1 0.00 0.00 0.00 53 1018.7
20260508181006 68 185 2.6 6.1 0.00 0.00 0.00 52 1018.7
20260508180505 68 196 0.0 7.8 0.00 0.00 0.00 56 1018.7
20260508180006 68 202 5.2 7.8 0.00 0.00 0.00 50 1018.6
20260508175505 67 213 0.9 4.3 0.00 0.00 0.00 58 1018.8
20260508175006 66 205 1.7 6.1 0.00 0.00 0.00 52 1018.8
20260508174505 66 209 1.7 8.7 0.00 0.00 0.00 54 1019.0
20260508174006 66 201 0.9 8.7 0.00 0.00 0.00 56 1019.0
20260508173005 65 198 1.7 6.1 0.00 0.00 0.00 56 1019.0
20260508172011 64 197 1.7 7.0 0.00 0.00 0.00 55 1019.0
20260508171509 65 209 1.7 7.0 0.00 0.00 0.00 55 1019.1
20260508170506 65 175 0.0 5.2 0.00 0.00 0.00 54 1019.3
20260508170007 65 172 3.5 5.2 0.00 0.00 0.00 52 1019.2
20260508164506 66 168 0.9 5.2 0.00 0.00 0.00 50 1019.5
20260508164005 66 71 0.9 2.6 0.00 0.00 0.00 51 1019.6
20260508163505 67 123 0.9 3.5 0.00 0.00 0.00 55 1019.9
20260508163006 66 204 0.9 3.5 0.00 0.00 0.00 50 1019.9
20260508162505 66 205 0.0 5.2 0.00 0.00 0.00 56 1020.1
20260508162006 65 210 0.0 5.2 0.00 0.00 0.00 53 1020.0
20260508161505 65 223 0.9 5.2 0.00 0.00 0.00 52 1020.0
20260508161006 64 0 0.0 3.5 0.00 0.00 0.00 53 1020.1
20260508154506 63 177 0.9 3.5 0.00 0.00 0.00 54 1020.4
20260508154005 62 0 0.0 5.2 0.00 0.00 0.00 54 1020.5
20260508153505 62 76 2.6 5.2 0.00 0.00 0.00 55 1020.6
20260508153006 62 133 1.7 5.2 0.00 0.00 0.00 54 1020.6
20260508152505 61 146 1.7 4.3 0.00 0.00 0.00 54 1020.6
20260508151505 60 21 0.9 3.5 0.00 0.00 0.00 58 1020.8
20260508151006 59 20 0.9 3.5 0.00 0.00 0.00 55 1020.6
20260508145505 58 21 2.6 5.2 0.00 0.00 0.00 57 1020.7
20260508145005 58 29 1.7 3.5 0.00 0.00 0.00 54 1020.7
20260508144505 58 0 0.0 3.5 0.00 0.00 0.00 58 1020.6
20260508144006 58 46 0.9 3.5 0.00 0.00 0.00 57 1020.7
20260508143505 58 21 0.9 3.5 0.00 0.00 0.00 59 1020.7
20260508143009 58 8 0.9 3.5 0.00 0.00 0.00 53 1020.7
20260508142005 57 0 0.0 2.6 0.00 0.00 0.00 60 1020.9
20260508141505 57 168 0.9 2.6 0.00 0.00 0.00 60 1020.9
20260508141005 56 0 0.0 0.9 0.00 0.00 0.00 63 1020.9
20260508140505 55 21 0.9 2.6 0.00 0.00 0.00 66 1020.9
20260508135505 54 11 1.7 3.5 0.00 0.00 0.00 73 1021.0
20260508135005 53 0 0.0 4.3 0.00 0.00 0.00 77 1020.9
20260508134509 53 10 0.9 4.3 0.00 0.00 0.00 81 1020.9
20260508134006 52 8 1.7 3.5 0.00 0.00 0.00 86 1021.0
20260508133505 52 359 0.0 2.6 0.00 0.00 0.00 87 1021.1
20260508132505 50 0 0.0 0.0 0.00 0.01 0.00 91 1021.1
20260508132006 50 0 0.0 2.6 0.00 0.01 0.00 92 1021.1
20260508131505 49 0 0.0 2.6 0.00 0.01 0.00 93 1021.1
20260508131005 49 10 0.9 2.6 0.00 0.01 0.00 94 1021.0
20260508130505 48 8 0.9 2.6 0.00 0.01 0.00 94 1020.9
20260508130006 48 7 0.9 1.7 0.00 0.01 0.00 95 1021.1
20260508125006 47 0 0.0 0.0 0.00 0.01 0.00 95 1020.9
20260508124505 47 0 0.0 0.0 0.00 0.01 0.00 96 1020.9
20260508124005 47 0 0.0 0.0 0.00 0.01 0.00 96 1020.8
20260508123505 46 0 0.0 0.0 0.00 0.01 0.00 96 1020.8
20260508123005 46 0 0.0 0.0 0.00 0.01 0.00 96 1020.8
20260508122505 46 0 0.0 0.0 0.00 0.01 0.00 96 1020.8
20260508122005 46 0 0.0 0.0 0.00 0.02 0.00 96 1020.7
20260508121505 45 0 0.0 0.0 0.00 0.02 0.00 96 1020.6
20260508121006 45 0 0.0 0.0 0.00 0.02 0.00 96 1020.5
20260508120505 45 0 0.0 0.0 0.00 0.02 0.00 96 1020.4
20260508120005 44 0 0.0 0.0 0.00 0.02 0.00 96 1020.4
20260508115005 44 0 0.0 0.0 0.00 0.03 0.00 96 1020.4
20260508114506 43 0 0.0 0.0 0.00 0.03 0.00 95 1020.3
20260508114005 43 0 0.0 0.0 0.00 0.03 0.00 95 1020.2
20260508113505 43 0 0.0 0.0 0.00 0.04 0.00 96 1020.2
20260508112505 42 0 0.0 0.0 0.00 0.06 0.00 95 1020.0
20260508112006 42 0 0.0 0.0 0.00 0.06 0.00 95 1019.8
20260508111505 42 0 0.0 0.0 0.00 0.06 0.00 95 1019.6
20260508110505 42 0 0.0 0.0 0.00 0.08 0.00 95 1019.5
20260508110005 42 0 0.0 0.0 0.00 0.09 0.00 95 1019.6
20260508105505 42 0 0.0 0.0 0.00 0.09 0.00 95 1019.6
20260508105005 42 0 0.0 0.0 0.00 0.11 0.00 95 1019.5
20260508104505 42 0 0.0 0.0 0.00 0.13 0.00 95 1019.4
20260508104005 42 0 0.0 0.0 0.00 0.14 0.00 94 1019.4
20260508103505 43 0 0.0 0.0 0.00 0.14 0.00 94 1019.4
20260508103005 43 0 0.0 0.0 0.00 0.14 0.00 94 1019.2
20260508102505 43 0 0.0 0.0 0.00 0.14 0.00 94 1019.2
20260508102005 43 0 0.0 0.0 0.00 0.14 0.00 94 1019.1
20260508101505 43 0 0.0 0.0 0.00 0.14 0.00 94 1019.0
20260508101005 43 0 0.0 0.0 0.00 0.14 0.00 94 1019.0
20260508100505 43 0 0.0 0.0 0.00 0.14 0.00 94 1018.9
20260508095505 44 0 0.0 0.0 0.00 0.14 0.00 94 1018.7
20260508095005 44 0 0.0 0.0 0.00 0.14 0.00 94 1018.5
20260508094505 44 0 0.0 0.0 0.00 0.14 0.00 94 1018.6
20260508094005 44 0 0.0 0.0 0.00 0.14 0.00 93 1018.5
20260508093505 45 0 0.0 0.0 0.00 0.14 0.00 93 1018.5
20260508093005 45 0 0.0 0.0 0.00 0.14 0.00 93 1018.4
20260508092505 45 0 0.0 0.0 0.00 0.14 0.00 93 1018.5
20260508092005 45 0 0.0 0.0 0.00 0.14 0.00 93 1018.5
20260508091505 46 0 0.0 0.0 0.00 0.14 0.00 93 1018.4
20260508090505 46 0 0.0 0.0 0.00 0.14 0.00 93 1018.3
20260508085505 46 0 0.0 0.0 0.00 0.14 0.00 93 1018.5
20260508085005 46 0 0.0 0.0 0.00 0.14 0.00 92 1018.4
20260508084505 46 0 0.0 0.0 0.00 0.14 0.00 93 1018.5
20260508084005 46 0 0.0 0.0 0.00 0.14 0.00 93 1018.5
20260508083505 46 0 0.0 0.0 0.00 0.14 0.00 92 1018.4
20260508083005 46 0 0.0 0.0 0.00 0.14 0.00 92 1018.3
20260508082505 47 0 0.0 0.0 0.00 0.14 0.00 92 1018.2
20260508082005 47 0 0.0 0.0 0.00 0.14 0.00 92 1018.1
20260508081505 47 0 0.0 0.0 0.00 0.14 0.00 92 1018.1
20260508081006 47 0 0.0 0.0 0.00 0.14 0.00 91 1018.1
20260508080505 47 0 0.0 0.0 0.00 0.14 0.00 91 1018.0
20260508080005 47 0 0.0 0.0 0.00 0.15 0.00 91 1018.0
20260508075505 47 0 0.0 0.0 0.00 0.15 0.00 91 1018.0
20260508075005 48 0 0.0 0.0 0.00 0.16 0.00 91 1018.0
20260508074504 48 0 0.0 0.0 0.00 0.19 0.00 91 1018.0
20260508074005 48 0 0.0 0.0 0.00 0.19 0.00 91 1018.1
20260508073006 48 0 0.0 0.0 0.00 0.19 0.00 91 1017.9
20260508072505 49 0 0.0 2.6 0.00 0.19 0.00 91 1017.8
20260508072005 49 1 0.9 2.6 0.00 0.19 0.00 91 1017.7
20260508071505 49 6 0.9 2.6 0.00 0.19 0.00 92 1017.7
20260508070505 49 0 0.0 0.0 0.00 0.19 0.00 92 1017.7
20260508070005 49 0 0.0 4.3 0.00 0.19 0.00 92 1017.8
20260508065505 49 351 0.0 4.3 0.00 0.19 0.00 92 1017.8
20260508065005 49 347 0.9 2.6 0.00 0.19 0.00 92 1017.8
20260508064505 49 0 0.0 4.3 0.00 0.19 0.00 92 1017.6
20260508064005 49 4 0.0 4.3 0.00 0.19 0.00 92 1017.5
20260508063005 49 0 0.0 0.0 0.00 0.19 0.00 92 1017.6
20260508062505 49 0 0.0 0.0 0.00 0.19 0.00 91 1017.7
20260508062006 49 0 0.0 0.0 0.00 0.19 0.00 91 1017.8
20260508061505 49 0 0.0 0.0 0.00 0.19 0.00 91 1017.8
20260508061005 49 0 0.0 0.0 0.00 0.19 0.00 91 1017.7
20260508055505 49 0 0.0 0.0 0.00 0.19 0.00 91 1017.6
20260508055005 49 0 0.0 0.0 0.00 0.19 0.00 91 1017.6
20260508054005 49 0 0.0 0.0 0.00 0.20 0.00 91 1017.7
20260508053504 49 0 0.0 0.0 0.00 0.20 0.00 91 1017.7
20260508053005 49 0 0.0 0.0 0.00 0.21 0.00 91 1017.8
20260508052505 49 0 0.0 3.5 0.00 0.21 0.00 91 1017.7
20260508052005 49 1 0.9 3.5 0.00 0.21 0.00 91 1017.6
20260508051506 49 0 0.0 0.0 0.00 0.21 0.00 91 1017.6
20260508051005 49 0 0.0 2.6 0.00 0.21 0.00 91 1017.7
20260508050505 49 0 0.0 2.6 0.00 0.22 0.00 91 1017.6
20260508050005 49 309 0.0 1.7 0.00 0.24 0.00 91 1017.4
20260508045505 49 0 0.0 0.0 0.00 0.24 0.00 91 1017.6
20260508045005 49 0 0.0 0.0 0.00 0.24 0.00 91 1017.6
20260508044505 49 0 0.0 0.0 0.00 0.25 0.00 91 1017.7
20260508044005 49 0 0.0 0.0 0.00 0.26 0.00 91 1017.6
20260508043505 49 0 0.0 3.5 0.00 0.26 0.00 91 1017.5
20260508042505 49 0 0.0 0.0 0.00 0.30 0.00 91 1017.5
20260508042005 49 0 0.0 0.0 0.00 0.31 0.00 90 1017.4
20260508041505 49 0 0.0 0.0 0.00 0.31 0.00 90 1017.5
20260508041005 49 0 0.0 0.0 0.00 0.31 0.00 90 1017.4
20260508040505 49 0 0.0 0.0 0.00 0.39 0.00 90 1017.3
20260508040006 50 0 0.0 0.9 0.00 0.39 0.00 90 1017.4
20260508035505 50 0 0.0 0.9 0.00 0.39 0.00 90 1017.4
20260508035005 50 356 0.0 0.9 0.00 0.41 0.00 90 1017.3
20260508034505 50 0 0.0 1.7 0.00 0.42 0.00 90 1017.3
20260508034005 50 0 0.0 1.7 0.00 0.42 0.00 90 1017.3
20260508033505 50 0 0.0 0.0 0.00 0.42 0.00 90 1017.3
20260508033005 50 0 0.0 0.0 0.00 0.42 0.00 90 1017.4
20260508032505 50 0 0.0 0.0 0.00 0.42 0.00 90 1017.3
20260508032005 50 0 0.0 0.0 0.00 0.42 0.00 90 1017.4
20260508031505 50 0 0.0 0.0 0.00 0.42 0.00 89 1017.4
20260508031005 50 0 0.0 0.0 0.00 0.42 0.00 89 1017.3
20260508030505 50 0 0.0 0.0 0.00 0.42 0.00 89 1017.2
20260508030006 50 0 0.0 0.0 0.00 0.42 0.00 88 1017.2
20260508025005 51 0 0.0 0.0 0.00 0.42 0.42 88 1017.3
20260508024505 51 0 0.0 3.5 0.00 0.42 0.42 88 1017.3
20260508024005 51 0 0.0 3.5 0.00 0.42 0.42 87 1017.1
20260508023005 51 0 0.0 4.3 0.00 0.42 0.42 86 1016.8
20260508022005 52 11 0.9 6.1 0.00 0.42 0.42 86 1016.6
20260508021504 52 13 3.5 7.8 0.00 0.42 0.42 86 1016.6
20260508021005 52 12 3.5 7.8 0.00 0.42 0.42 87 1016.5
20260508020505 51 9 4.3 7.0 0.00 0.43 0.42 87 1016.4
20260508020006 51 7 3.5 6.1 0.00 0.45 0.42 87 1016.5
20260508015505 51 0 0.0 3.5 0.00 0.47 0.42 87 1016.6
20260508015005 51 10 0.9 6.1 0.00 0.48 0.42 87 1016.5
20260508014505 51 9 2.6 6.1 0.00 0.48 0.42 87 1016.5
20260508014005 51 5 3.5 6.1 0.00 0.48 0.42 87 1016.4
20260508013505 51 2 1.7 4.3 0.00 0.48 0.42 86 1016.2
20260508013006 51 3 0.9 3.5 0.00 0.48 0.42 86 1016.1
20260508011505 52 10 2.6 4.3 0.00 0.48 0.42 85 1016.1
20260508010505 52 0 0.0 4.3 0.00 0.49 0.42 84 1016.1
20260508010005 52 11 0.9 8.7 0.00 0.49 0.42 83 1016.0
20260508005005 53 13 4.3 7.8 0.00 0.49 0.42 82 1015.8
20260508004504 53 18 4.3 7.0 0.00 0.49 0.42 82 1015.6
20260508004005 53 14 3.5 7.0 0.00 0.49 0.42 82 1015.6
20260508003505 53 11 3.5 7.8 0.00 0.49 0.42 82 1015.5
20260508002005 53 12 4.3 8.7 0.00 0.57 0.42 81 1015.5
20260508001505 54 12 3.5 8.7 0.00 0.58 0.42 81 1015.4
20260508000505 54 15 5.2 10.4 0.00 0.58 0.42 81 1015.1
20260508000005 54 14 4.3 10.4 0.00 0.58 0.42 80 1015.3
20260507235505 54 15 3.5 6.1 0.00 0.58 0.42 80 1015.2
20260507235006 55 13 1.7 6.1 0.00 0.59 0.42 80 1015.2
20260507234004 55 18 4.3 10.4 0.00 0.61 0.42 79 1015.1
20260507233505 55 13 4.3 10.4 0.00 0.63 0.42 79 1015.2
20260507233004 56 13 7.8 10.4 0.00 0.66 0.42 78 1015.2
20260507232504 56 14 3.5 9.6 0.00 0.67 0.42 79 1015.2
20260507232004 56 13 4.3 10.4 0.00 0.68 0.42 79 1015.1